Miscellaneous Local Product
Issued by NWS Hastings, NE

Home | Current Version | Previous Version | Text Only | Print | Product List | Glossary Off
Versions: 1 2 3 4 5 6 7 8 9 10 11 12 13 14 15 16 17 18 19 20 21 22 23 24 25 26 27 28 29 30 31 32 33 34 35 36 37 38 39 40 41 42 43 44 45 46 47 48 49 50

000
AXUS43 KGID 080102
MISGRI

GID CWA HOURLY WEATHER ROUNDUP
NATIONAL WEATHER SERVICE HASTINGS NE
700 PM CST WED DEC 07 2016

NOTE: "FAIR" INDICATES FEW OR NO CLOUDS BELOW 12,000 FEET WITH NO
SIGNIFICANT WEATHER AND/OR OBSTRUCTIONS TO VISIBILITY.

...SOUTH CENTRAL NEBRASKA...

CITY           SKY/WX    TMP DP  RH WIND       PRES   REMARKS
GRAND ISLAND   CLEAR     14   3  61 NW8       30.42R WCI   3
HASTINGS       CLEAR     17   3  54 NW10      30.43R WCI   5
KEARNEY        CLEAR     16   0  48 NW6       30.42R WCI   7
ORD            CLEAR     15   1  53 NW18      30.41R WCI  -2
YORK           CLEAR     18   5  57 NW9       30.41R WCI   6
AURORA         CLEAR     15   4  61 NW7       30.41R WCI   5
LEXINGTON      CLEAR     14   4  65 NW8       30.43R WCI   3
HOLDREGE       PTCLDY    13   3  66 NW6       30.42R WCI   3
HEBRON         PTCLDY    19   7  60 NW6       30.44R WCI  10

...NEBRASKA PANHANDLE...

CITY           SKY/WX    TMP DP  RH WIND       PRES   REMARKS
CHADRON        CLEAR      5  -5  63 W16       30.44R WCI -14
ALLIANCE       CLEAR      1  -5  75 W12       30.36R WCI -16
SCOTTSBLUFF    CLEAR      7  -4  60 NW14      30.40R WCI -10
SIDNEY         CLEAR      3  -4  72 NW12      30.36R WCI -13

...WESTERN AND NORTH CENTRAL NEBRASKA...

CITY           SKY/WX    TMP DP  RH WIND       PRES   REMARKS
VALENTINE      CLEAR      9  -2  61 NW10      30.42R WCI  -5
AINSWORTH      CLEAR     11   2  67 NW16G23   30.40R WCI  -6
ONEILL         CLEAR     13   3  64 NW16G23   30.40R WCI  -3
BROKEN BOW     CLEAR     14   2  58 NW15      30.40R WCI  -1
IMPERIAL       PTCLDY     7   1  76 W7        30.42R WCI  -5
NORTH PLATTE   CLEAR      9   1  70 NW8       30.42R WCI  -3
MCCOOK         PTCLDY    12   5  73 NW9       30.45R WCI   0

...EASTERN NEBRASKA...

CITY           SKY/WX    TMP DP  RH WIND       PRES   REMARKS
NORFOLK        CLEAR     16   2  54 NW18G25   30.37R WCI   0
SO SIOUX CITY  PTCLDY    19   6  57 NW21      30.37R WCI   3
TEKAMAH        CLEAR     18   6  59 W14       30.39R WCI   4
COLUMBUS       CLEAR     18   1  49 W14       30.40R WCI   4
ALBION         CLEAR     15   3  58 NW15      30.39S WCI   0
OMAHA EPPLEY   CLEAR     20   7  57 NW13      30.39R WCI   7
OFFUTT AFB     CLEAR     21   7  55 NW15      30.39R WCI   7
MILLARD        CLEAR     22   7  51 NW12      30.40R WCI  11
LINCOLN        CLEAR     20   6  55 NW10      30.43R WCI   9
NEBRASKA CITY  CLEAR     19   6  55 W8        30.39R WCI   9
BEATRICE       CLEAR     17   8  67 W6        30.42R WCI   9
FALLS CITY     CLEAR     19  10  68 NW7       30.41R WCI  10

...NORTHERN KANSAS...

CITY           SKY/WX    TMP DP  RH WIND       PRES   REMARKS
GOODLAND       MOCLDY     9   5  84 NW12      30.39R WCI  -6
HILL CITY      CLEAR     15   9  76 NW7       30.47R WCI   5
NORTON         CLEAR     16   7  67 W10       30.43  WCI   3
PHILLIPSBURG   CLEAR     14   9  79 W6        30.47R WCI   5
SMITH CENTER   CLEAR     10   7  85 W7        30.46R WCI   0
BELOIT         CLEAR     19  10  68 W7        30.46R WCI  10
HAYS           CLEAR     18  13  80 NW7       30.47R WCI   9
RUSSELL        CLEAR     16  12  84 NW7       30.45R WCI   6
CONCORDIA      CLEAR     20  10  65 NW7       30.45R WCI  11
SALINA         CLEAR     20  14  77 NW8       30.46R WCI  10
TOPEKA         CLEAR     24  13  62 W5        30.43R WCI  18



USA.gov is the U.S. government's official web portal to all federal, state and local government web resources and services.